This is the latest recevied weather packets stored in our database for station/object EA5FOG-11. If no packets are shown the sender has not sent any weather packets the latest 10 day(s).
| Time | Temp. | Humidity | Pressure | Rain* | Wind** | Luminosity | Snow |
|---|---|---|---|---|---|---|---|
| 1788498757 | 21.67° C | 60% | 964.3 hPa | - | - | - | - |
| 1788497857 | 21.67° C | 60% | 964.2 hPa | - | - | - | - |
| 1788496956 | 21.67° C | 60% | 964.2 hPa | - | - | - | - |
| 1788496055 | 22.22° C | 60% | 964.1 hPa | - | - | - | - |
| 1788495154 | 22.22° C | 60% | 964.1 hPa | - | - | - | - |
| 1788494253 | 22.78° C | 59% | 964 hPa | - | - | - | - |
| 1788493352 | 22.78° C | 59% | 964.1 hPa | - | - | - | - |
| 1788492452 | 23.33° C | 59% | 964.2 hPa | - | - | - | - |
| 1788491551 | 23.33° C | 58% | 964.2 hPa | - | - | - | - |
| 1788490650 | 23.89° C | 58% | 964.2 hPa | - | - | - | - |
| 1788489749 | 23.89° C | 58% | 964.3 hPa | - | - | - | - |
| 1788488849 | 23.89° C | 58% | 964.4 hPa | - | - | - | - |
| 1788487948 | 24.44° C | 58% | 964.4 hPa | - | - | - | - |
| 1788487047 | 24.44° C | 58% | 964.5 hPa | - | - | - | - |
| 1788486146 | 24.44° C | 58% | 964.6 hPa | - | - | - | - |
| 1788484362 | 24.44° C | 58% | 964.9 hPa | - | - | - | - |
| 1788483462 | 24.44° C | 58% | 965 hPa | - | - | - | - |
| 1788482561 | 24.44° C | 57% | 965.1 hPa | - | - | - | - |
| 1788481660 | 25° C | 57% | 965.2 hPa | - | - | - | - |
| 1788480759 | 25° C | 57% | 965.3 hPa | - | - | - | - |
| 1788479858 | 24.44° C | 57% | 965.5 hPa | - | - | - | - |
| 1788478958 | 24.44° C | 56% | 965.5 hPa | - | - | - | - |
| 1788478057 | 25° C | 56% | 965.5 hPa | - | - | - | - |
| 1788477156 | 25° C | 56% | 965.5 hPa | - | - | - | - |
| 1788476255 | 25.56° C | 55% | 965.5 hPa | - | - | - | - |
* Rain since midnight (hover to see other rain measurements)
** Current wind speed in m/s (hover to see current wind gust speed)